Location: G�migny
(47.9646°N, 1.6950°E)
Time: 03:21:14
(UTC+00:00)

H-2A R/B - Pass Details

Date: 23 October 2019
Orbit: 734 x 837 km, 98.3° (Epoch: 16 November)

Event Time Altitude Azimuth Distance (km) Brightness Sun altitude
Exits shadow 19:21:20 51° 34° (NNE) 1,041 2.4 -25.8°
Drops below altitude 10° 19:25:48 10° 353° (N) 2,458 4.8 -26.5°
Sets 19:28:13 0° 350° (N) 3,400 5.6 -26.9°
